| time (UTC) | temp F | wind direction | speed MPH | gust MPH | rain 1hr in | rain 24hr in | rain mn in | humidity % | barometer mb |
| 20260508020018 | 53 | 297 | 0.0 | 1.0 | 0.00 | 0.04 | 0.04 | 45 | 1004.9 |
| 20260508015515 | 53 | 297 | 0.0 | 0.0 | 0.00 | 0.04 | 0.04 | 44 | 1004.8 |
| 20260508015012 | 53 | 297 | 0.0 | 1.0 | 0.00 | 0.04 | 0.04 | 44 | 1004.6 |
| 20260508014509 | 53 | 297 | 0.0 | 1.0 | 0.00 | 0.04 | 0.04 | 44 | 1004.6 |
| 20260508014005 | 53 | 297 | 1.0 | 1.0 | 0.00 | 0.04 | 0.04 | 43 | 1004.5 |
| 20260508013501 | 53 | 297 | 0.0 | 0.0 | 0.00 | 0.04 | 0.04 | 44 | 1004.5 |
| 20260508012959 | 54 | 297 | 0.0 | 0.0 | 0.00 | 0.04 | 0.04 | 43 | 1004.5 |
| 20260508012456 | 54 | 296 | 0.0 | 0.0 | 0.00 | 0.04 | 0.04 | 44 | 1004.4 |
| 20260508011953 | 54 | 296 | 0.0 | 0.0 | 0.00 | 0.04 | 0.04 | 44 | 1004.2 |
| 20260508011451 | 54 | 296 | 0.0 | 0.0 | 0.00 | 0.04 | 0.04 | 43 | 1004.3 |
| 20260508010948 | 54 | 296 | 0.0 | 0.0 | 0.00 | 0.04 | 0.04 | 42 | 1004.1 |
| 20260508010445 | 54 | 296 | 0.0 | 0.0 | 0.00 | 0.04 | 0.04 | 43 | 1004.0 |
| 20260508005942 | 55 | 296 | 0.0 | 0.0 | 0.00 | 0.04 | 0.04 | 42 | 1004.0 |
| 20260508005439 | 55 | 296 | 1.0 | 1.0 | 0.00 | 0.04 | 0.04 | 41 | 1003.9 |
| 20260508004935 | 55 | 296 | 0.0 | 0.0 | 0.00 | 0.04 | 0.04 | 43 | 1003.9 |
| 20260508004431 | 55 | 296 | 0.0 | 1.0 | 0.00 | 0.04 | 0.04 | 41 | 1003.9 |
| 20260508003928 | 55 | 296 | 0.0 | 0.0 | 0.00 | 0.04 | 0.04 | 43 | 1003.9 |
| 20260508003425 | 55 | 296 | 0.0 | 0.0 | 0.00 | 0.04 | 0.04 | 42 | 1003.4 |
| 20260508002922 | 55 | 296 | 0.0 | 0.0 | 0.00 | 0.04 | 0.04 | 44 | 1003.4 |
| 20260508002419 | 55 | 296 | 0.0 | 0.0 | 0.00 | 0.04 | 0.04 | 44 | 1003.5 |
| 20260508001915 | 55 | 296 | 0.0 | 0.0 | 0.00 | 0.04 | 0.04 | 47 | 1003.2 |
| 20260508001411 | 55 | 296 | 0.0 | 0.0 | 0.00 | 0.04 | 0.04 | 45 | 1003.4 |
| 20260508000908 | 55 | 296 | 0.0 | 0.0 | 0.00 | 0.04 | 0.04 | 45 | 1003.2 |
| 20260508000405 | 55 | 296 | 0.0 | 0.0 | 0.00 | 0.04 | 0.04 | 45 | 1003.2 |
| 20260507235901 | 56 | 296 | 0.0 | 0.0 | 0.00 | 0.04 | 0.04 | 45 | 1003.2 |
| 20260507235358 | 56 | 296 | 0.0 | 0.0 | 0.00 | 0.04 | 0.04 | 44 | 1003.1 |
| 20260507234855 | 56 | 296 | 0.0 | 0.0 | 0.00 | 0.04 | 0.04 | 44 | 1002.9 |
| 20260507234352 | 56 | 296 | 0.0 | 1.0 | 0.00 | 0.04 | 0.04 | 44 | 1002.8 |
| 20260507233848 | 56 | 296 | 0.0 | 0.0 | 0.00 | 0.04 | 0.04 | 43 | 1002.9 |
| 20260507233345 | 57 | 296 | 0.0 | 0.0 | 0.00 | 0.04 | 0.04 | 43 | 1002.9 |
| 20260507232844 | 57 | 296 | 0.0 | 0.0 | 0.00 | 0.04 | 0.04 | 42 | 1002.9 |
| 20260507232340 | 57 | 296 | 0.0 | 1.0 | 0.00 | 0.04 | 0.04 | 41 | 1002.7 |
| 20260507231838 | 58 | 296 | 1.0 | 2.0 | 0.00 | 0.04 | 0.04 | 40 | 1002.7 |
| 20260507231334 | 58 | 296 | 0.0 | 0.0 | 0.00 | 0.04 | 0.04 | 42 | 1002.7 |
| 20260507230830 | 58 | 296 | 1.0 | 2.0 | 0.00 | 0.04 | 0.04 | 40 | 1002.7 |
| 20260507230327 | 58 | 296 | 2.0 | 2.0 | 0.00 | 0.04 | 0.04 | 41 | 1002.7 |
| 20260507225827 | 59 | 296 | 0.0 | 0.0 | 0.00 | 0.04 | 0.04 | 40 | 1002.4 |
| 20260507225323 | 59 | 296 | 1.0 | 1.0 | 0.00 | 0.04 | 0.04 | 39 | 1002.6 |
| 20260507224820 | 59 | 295 | 0.0 | 1.0 | 0.00 | 0.04 | 0.04 | 41 | 1002.3 |
| 20260507224317 | 59 | 296 | 1.0 | 1.0 | 0.00 | 0.04 | 0.04 | 40 | 1002.1 |
| 20260507223813 | 60 | 296 | 0.0 | 1.0 | 0.00 | 0.04 | 0.04 | 40 | 1002.1 |
| 20260507223309 | 59 | 296 | 1.0 | 1.0 | 0.00 | 0.04 | 0.04 | 40 | 1002.3 |
| 20260507222807 | 59 | 296 | 1.0 | 1.0 | 0.00 | 0.04 | 0.04 | 40 | 1002.3 |
| 20260507222305 | 60 | 296 | 2.0 | 2.0 | 0.00 | 0.04 | 0.04 | 39 | 1002.0 |
| 20260507221800 | 60 | 295 | 2.0 | 2.0 | 0.00 | 0.04 | 0.04 | 39 | 1002.2 |
| 20260507221256 | 60 | 295 | 3.0 | 3.0 | 0.00 | 0.04 | 0.04 | 38 | 1001.8 |
| 20260507220752 | 61 | 295 | 2.0 | 2.0 | 0.00 | 0.04 | 0.04 | 38 | 1002.0 |
| 20260507220251 | 61 | 295 | 2.0 | 2.0 | 0.00 | 0.04 | 0.04 | 37 | 1001.8 |
| 20260507215747 | 61 | 295 | 1.0 | 2.0 | 0.00 | 0.04 | 0.04 | 40 | 1001.9 |
| 20260507215244 | 61 | 295 | 1.0 | 2.0 | 0.00 | 0.04 | 0.04 | 39 | 1001.9 |
| 20260507214741 | 61 | 295 | 1.0 | 1.0 | 0.00 | 0.04 | 0.04 | 39 | 1001.8 |
| 20260507214238 | 61 | 295 | 2.0 | 2.0 | 0.00 | 0.04 | 0.04 | 37 | 1001.9 |
| 20260507213733 | 61 | 295 | 2.0 | 2.0 | 0.00 | 0.04 | 0.04 | 39 | 1002.0 |
| 20260507213231 | 61 | 295 | 2.0 | 3.0 | 0.00 | 0.04 | 0.04 | 37 | 1001.8 |
| 20260507212727 | 62 | 295 | 2.0 | 2.0 | 0.00 | 0.04 | 0.04 | 36 | 1001.9 |
| 20260507212224 | 62 | 295 | 1.0 | 1.0 | 0.00 | 0.04 | 0.04 | 37 | 1001.7 |
| 20260507211720 | 62 | 295 | 3.0 | 3.0 | 0.00 | 0.04 | 0.04 | 37 | 1001.8 |
| 20260507211216 | 62 | 298 | 1.0 | 1.0 | 0.00 | 0.04 | 0.04 | 35 | 1001.8 |
| 20260507210714 | 62 | 298 | 1.0 | 1.0 | 0.00 | 0.04 | 0.04 | 38 | 1001.6 |
| 20260507210210 | 62 | 298 | 2.0 | 2.0 | 0.00 | 0.04 | 0.04 | 38 | 1001.6 |
| 20260507205707 | 62 | 300 | 1.0 | 2.0 | 0.00 | 0.04 | 0.04 | 37 | 1001.8 |
| 20260507205204 | 62 | 300 | 3.0 | 3.0 | 0.00 | 0.04 | 0.04 | 37 | 1001.7 |
| 20260507204700 | 62 | 300 | 2.0 | 2.0 | 0.00 | 0.04 | 0.04 | 38 | 1001.7 |
| 20260507204158 | 62 | 300 | 0.0 | 1.0 | 0.00 | 0.04 | 0.04 | 41 | 1001.6 |
| 20260507203656 | 62 | 300 | 2.0 | 3.0 | 0.00 | 0.04 | 0.04 | 39 | 1001.4 |
| 20260507203153 | 63 | 301 | 1.0 | 2.0 | 0.00 | 0.04 | 0.04 | 38 | 1001.5 |
| 20260507202648 | 63 | 301 | 1.0 | 1.0 | 0.00 | 0.04 | 0.04 | 38 | 1001.6 |
| 20260507202144 | 63 | 301 | 0.0 | 0.0 | 0.00 | 0.04 | 0.04 | 38 | 1001.6 |
| 20260507201639 | 62 | 300 | 1.0 | 1.0 | 0.00 | 0.04 | 0.04 | 38 | 1001.6 |
| 20260507201137 | 63 | 307 | 3.0 | 6.0 | 0.00 | 0.04 | 0.04 | 35 | 1001.6 |
| 20260507200633 | 63 | 302 | 2.0 | 3.0 | 0.00 | 0.04 | 0.04 | 37 | 1001.6 |
| 20260507200129 | 63 | 302 | 2.0 | 2.0 | 0.00 | 0.04 | 0.04 | 36 | 1001.8 |
| 20260507195626 | 62 | 302 | 1.0 | 1.0 | 0.00 | 0.04 | 0.04 | 39 | 1001.8 |
| 20260507195123 | 63 | 303 | 1.0 | 2.0 | 0.00 | 0.04 | 0.04 | 39 | 1001.8 |
| 20260507194620 | 62 | 303 | 1.0 | 1.0 | 0.00 | 0.04 | 0.04 | 38 | 1001.8 |
| 20260507194115 | 61 | 303 | 1.0 | 1.0 | 0.00 | 0.04 | 0.04 | 40 | 1002.0 |
| 20260507193613 | 62 | 303 | 1.0 | 1.0 | 0.00 | 0.04 | 0.04 | 42 | 1001.9 |
| 20260507193109 | 62 | 303 | 1.0 | 1.0 | 0.00 | 0.04 | 0.04 | 39 | 1001.7 |
| 20260507192606 | 64 | 303 | 1.0 | 1.0 | 0.00 | 0.04 | 0.04 | 40 | 1001.9 |
| 20260507192103 | 64 | 303 | 3.0 | 3.0 | 0.00 | 0.04 | 0.04 | 38 | 1002.0 |
| 20260507191558 | 64 | 305 | 0.0 | 1.0 | 0.00 | 0.04 | 0.04 | 38 | 1001.9 |
| 20260507191055 | 64 | 309 | 2.0 | 3.0 | 0.00 | 0.04 | 0.04 | 37 | 1002.1 |
| 20260507190552 | 65 | 310 | 1.0 | 1.0 | 0.00 | 0.04 | 0.04 | 38 | 1001.9 |
| 20260507190051 | 64 | 338 | 2.0 | 2.0 | 0.00 | 0.04 | 0.04 | 37 | 1002.0 |
| 20260507185549 | 63 | 301 | 0.0 | 1.0 | 0.00 | 0.04 | 0.04 | 36 | 1001.8 |
| 20260507185045 | 64 | 302 | 4.0 | 5.0 | 0.00 | 0.04 | 0.04 | 35 | 1002.0 |
| 20260507184544 | 65 | 306 | 2.0 | 2.0 | 0.00 | 0.04 | 0.04 | 38 | 1001.8 |
| 20260507184041 | 64 | 308 | 1.0 | 1.0 | 0.00 | 0.04 | 0.04 | 46 | 1002.0 |
| 20260507183537 | 64 | 301 | 1.0 | 2.0 | 0.00 | 0.04 | 0.04 | 46 | 1002.2 |
| 20260507183034 | 64 | 301 | 2.0 | 2.0 | 0.00 | 0.04 | 0.04 | 48 | 1002.1 |
| 20260507182531 | 63 | 302 | 0.0 | 1.0 | 0.00 | 0.04 | 0.04 | 46 | 1002.2 |
| 20260507182026 | 64 | 301 | 1.0 | 1.0 | 0.00 | 0.04 | 0.04 | 47 | 1002.1 |
| 20260507181524 | 64 | 300 | 0.0 | 1.0 | 0.00 | 0.04 | 0.04 | 47 | 1002.4 |
| 20260507181020 | 63 | 300 | 2.0 | 3.0 | 0.00 | 0.04 | 0.04 | 46 | 1002.2 |
| 20260507180516 | 63 | 300 | 2.0 | 3.0 | 0.00 | 0.04 | 0.04 | 47 | 1002.1 |
| 20260507180013 | 64 | 301 | 2.0 | 2.0 | 0.00 | 0.04 | 0.04 | 46 | 1002.1 |
| 20260507175509 | 64 | 301 | 3.0 | 5.0 | 0.00 | 0.04 | 0.04 | 46 | 1002.3 |
| 20260507175007 | 63 | 301 | 2.0 | 2.0 | 0.00 | 0.04 | 0.04 | 47 | 1002.3 |
| 20260507174504 | 64 | 301 | 3.0 | 3.0 | 0.00 | 0.04 | 0.04 | 47 | 1002.7 |
| 20260507174002 | 64 | 302 | 1.0 | 1.0 | 0.00 | 0.04 | 0.04 | 50 | 1002.4 |
| 20260507173458 | 62 | 303 | 2.0 | 2.0 | 0.00 | 0.04 | 0.04 | 52 | 1002.5 |
| 20260507172955 | 64 | 304 | 3.0 | 3.0 | 0.00 | 0.04 | 0.04 | 50 | 1002.5 |
| 20260507172452 | 65 | 305 | 1.0 | 3.0 | 0.00 | 0.04 | 0.04 | 48 | 1002.5 |
| 20260507171948 | 64 | 305 | 0.0 | 1.0 | 0.00 | 0.04 | 0.04 | 50 | 1002.6 |
| 20260507171444 | 63 | 303 | 4.0 | 5.0 | 0.00 | 0.04 | 0.04 | 50 | 1002.8 |
| 20260507170942 | 63 | 304 | 2.0 | 2.0 | 0.00 | 0.04 | 0.04 | 52 | 1002.7 |
| 20260507170438 | 64 | 304 | 3.0 | 3.0 | 0.00 | 0.04 | 0.04 | 51 | 1002.7 |
| 20260507165934 | 65 | 304 | 3.0 | 3.0 | 0.00 | 0.04 | 0.04 | 51 | 1002.7 |
| 20260507165431 | 65 | 310 | 2.0 | 2.0 | 0.00 | 0.04 | 0.04 | 51 | 1002.8 |
| 20260507164926 | 65 | 310 | 1.0 | 1.0 | 0.00 | 0.04 | 0.04 | 52 | 1002.9 |
| 20260507164424 | 64 | 310 | 2.0 | 2.0 | 0.00 | 0.04 | 0.04 | 53 | 1002.9 |
| 20260507163920 | 62 | 8 | 3.0 | 3.0 | 0.00 | 0.04 | 0.04 | 55 | 1002.8 |
| 20260507163418 | 58 | 310 | 1.0 | 1.0 | 0.00 | 0.04 | 0.04 | 68 | 1003.2 |
| 20260507162915 | 57 | 309 | 2.0 | 2.0 | 0.00 | 0.04 | 0.04 | 69 | 1003.0 |
| 20260507162410 | 57 | 309 | 2.0 | 2.0 | 0.00 | 0.04 | 0.04 | 71 | 1003.1 |
| 20260507161908 | 59 | 326 | 1.0 | 1.0 | 0.00 | 0.04 | 0.04 | 69 | 1003.2 |
| 20260507161403 | 58 | 327 | 0.0 | 1.0 | 0.00 | 0.04 | 0.04 | 66 | 1003.2 |
| 20260507160901 | 57 | 322 | 1.0 | 1.0 | 0.00 | 0.04 | 0.04 | 71 | 1003.4 |
| 20260507160356 | 57 | 325 | 2.0 | 2.0 | 0.00 | 0.04 | 0.04 | 70 | 1003.5 |
| 20260507155852 | 57 | 325 | 1.0 | 2.0 | 0.00 | 0.04 | 0.04 | 68 | 1003.8 |
| 20260507155348 | 56 | 327 | 1.0 | 2.0 | 0.00 | 0.04 | 0.04 | 69 | 1003.6 |
| 20260507154845 | 57 | 327 | 5.0 | 7.0 | 0.00 | 0.04 | 0.04 | 67 | 1003.8 |
| 20260507154345 | 59 | 316 | 1.0 | 2.0 | 0.00 | 0.00 | 0.00 | ||
| 20260507154343 | 59 | 316 | 1.0 | 2.0 | 0.00 | 0.04 | 0.04 | 68 | 1003.4 |
| 20260507153840 | 58 | 316 | 1.0 | 3.0 | 0.00 | 0.04 | 0.04 | 68 | 1003.4 |
| 20260507153537 | 59 | 316 | 1.0 | 1.0 | 0.00 | 0.04 | 0.04 | 69 | 1003.6 |
| 20260507153336 | 59 | 316 | 1.0 | 1.0 | 0.00 | 0.04 | 0.04 | 69 | 1003.6 |
| 20260507153120 | 59 | 312 | 2.0 | 2.0 | 0.00 | 0.04 | 0.04 | 67 | 1003.6 |
| 20260507152849 | 61 | 312 | 2.0 | 2.0 | 0.00 | 0.04 | 0.04 | 66 | 1003.8 |
| 20260507152833 | 59 | 312 | 2.0 | 2.0 | 0.00 | 0.04 | 0.04 | 67 | 1003.6 |
| 20260507152329 | 61 | 312 | 2.0 | 2.0 | 0.00 | 0.04 | 0.04 | 66 | 1003.8 |
| 20260507152014 | 59 | 311 | 3.0 | 5.0 | 0.00 | 0.04 | 0.04 | 71 | 1003.7 |
| 20260507151825 | 59 | 311 | 3.0 | 5.0 | 0.00 | 0.04 | 0.04 | 71 | 1003.7 |
| 20260507151321 | 60 | 312 | 3.0 | 5.0 | 0.00 | 0.04 | 0.04 | 69 | 1003.8 |
| 20260507150818 | 64 | 312 | 1.0 | 2.0 | 0.00 | 0.04 | 0.04 | 63 | 1003.6 |
| 20260507150315 | 65 | 312 | 1.0 | 1.0 | 0.00 | 0.04 | 0.04 | 49 | 1003.5 |
| 20260507145811 | 64 | 312 | 0.0 | 0.0 | 0.00 | 0.04 | 0.04 | 56 | 1003.5 |
| 20260507145308 | 63 | 312 | 1.0 | 1.0 | 0.00 | 0.04 | 0.04 | 55 | 1003.9 |
| 20260507144805 | 61 | 312 | 0.0 | 1.0 | 0.00 | 0.04 | 0.04 | 66 | 1003.7 |
| 20260507144302 | 61 | 311 | 1.0 | 1.0 | 0.00 | 0.04 | 0.04 | 64 | 1003.7 |
| 20260507143758 | 61 | 312 | 0.0 | 0.0 | 0.00 | 0.04 | 0.04 | 67 | 1003.8 |
| 20260507143256 | 64 | 312 | 0.0 | 0.0 | 0.00 | 0.04 | 0.04 | 59 | 1003.7 |
| 20260507142752 | 63 | 312 | 1.0 | 1.0 | 0.00 | 0.04 | 0.04 | 60 | 1003.8 |
| 20260507142248 | 62 | 312 | 1.0 | 1.0 | 0.00 | 0.04 | 0.04 | 63 | 1004.0 |
| 20260507141745 | 60 | 312 | 0.0 | 0.0 | 0.00 | 0.04 | 0.04 | 68 | 1003.9 |
| 20260507141242 | 62 | 311 | 0.0 | 0.0 | 0.00 | 0.04 | 0.04 | 61 | 1004.0 |
| 20260507140738 | 64 | 312 | 0.0 | 0.0 | 0.00 | 0.04 | 0.04 | 61 | 1004.2 |
| 20260507140236 | 64 | 312 | 1.0 | 1.0 | 0.00 | 0.04 | 0.04 | 62 | 1004.2 |
| 20260507135733 | 62 | 312 | 0.0 | 0.0 | 0.00 | 0.04 | 0.04 | 67 | 1004.5 |
| 20260507135230 | 62 | 312 | 0.0 | 0.0 | 0.00 | 0.04 | 0.04 | 65 | 1004.2 |
| 20260507134726 | 61 | 312 | 1.0 | 1.0 | 0.00 | 0.04 | 0.04 | 66 | 1004.3 |
| 20260507134222 | 61 | 311 | 2.0 | 2.0 | 0.00 | 0.04 | 0.04 | 69 | 1004.3 |
| 20260507133719 | 62 | 312 | 0.0 | 1.0 | 0.00 | 0.04 | 0.04 | 68 | 1004.1 |
| 20260507133215 | 62 | 312 | 2.0 | 2.0 | 0.00 | 0.04 | 0.04 | 68 | 1004.1 |
| 20260507132713 | 61 | 312 | 0.0 | 1.0 | 0.00 | 0.04 | 0.04 | 69 | 1004.4 |
| 20260507132209 | 62 | 312 | 0.0 | 0.0 | 0.00 | 0.04 | 0.04 | 67 | 1004.3 |
| 20260507131706 | 63 | 312 | 0.0 | 1.0 | 0.00 | 0.04 | 0.04 | 65 | 1004.4 |
| 20260507131204 | 62 | 312 | 0.0 | 0.0 | 0.00 | 0.04 | 0.04 | 67 | 1004.4 |
| 20260507130700 | 61 | 312 | 0.0 | 0.0 | 0.00 | 0.04 | 0.04 | 67 | 1004.5 |
| 20260507130158 | 62 | 312 | 1.0 | 2.0 | 0.00 | 0.04 | 0.04 | 70 | 1004.5 |
| 20260507125657 | 61 | 312 | 0.0 | 0.0 | 0.00 | 0.04 | 0.04 | 70 | 1004.6 |
| 20260507125154 | 61 | 312 | 0.0 | 0.0 | 0.00 | 0.04 | 0.04 | 69 | 1004.5 |
| 20260507124650 | 60 | 312 | 0.0 | 1.0 | 0.00 | 0.04 | 0.04 | 69 | 1004.5 |
| 20260507124148 | 61 | 312 | 0.0 | 0.0 | 0.00 | 0.04 | 0.04 | 69 | 1004.6 |
| 20260507123646 | 60 | 312 | 0.0 | 0.0 | 0.00 | 0.04 | 0.04 | 68 | 1004.6 |
| 20260507123143 | 59 | 312 | 0.0 | 0.0 | 0.00 | 0.04 | 0.04 | 69 | 1004.6 |
| 20260507122638 | 60 | 311 | 1.0 | 1.0 | 0.00 | 0.04 | 0.04 | 70 | 1004.8 |
| 20260507122134 | 59 | 311 | 0.0 | 0.0 | 0.00 | 0.04 | 0.04 | 72 | 1004.7 |
| 20260507121630 | 60 | 313 | 1.0 | 1.0 | 0.00 | 0.04 | 0.04 | 73 | 1004.6 |
| 20260507121126 | 60 | 313 | 0.0 | 0.0 | 0.00 | 0.04 | 0.04 | 71 | 1004.7 |
| 20260507120622 | 59 | 313 | 0.0 | 0.0 | 0.00 | 0.04 | 0.04 | 71 | 1004.8 |
| 20260507120119 | 58 | 312 | 0.0 | 0.0 | 0.00 | 0.04 | 0.04 | 73 | 1004.7 |
| 20260507115615 | 57 | 310 | 0.0 | 0.0 | 0.00 | 0.04 | 0.04 | 75 | 1004.6 |
| 20260507115111 | 55 | 311 | 0.0 | 0.0 | 0.00 | 0.04 | 0.04 | 80 | 1005.0 |
| 20260507114607 | 52 | 312 | 0.0 | 0.0 | 0.00 | 0.04 | 0.04 | 84 | 1004.7 |
| 20260507114105 | 52 | 310 | 0.0 | 0.0 | 0.00 | 0.04 | 0.04 | 86 | 1004.5 |
| 20260507113602 | 50 | 315 | 0.0 | 0.0 | 0.00 | 0.04 | 0.04 | 89 | 1004.7 |
| 20260507113059 | 51 | 314 | 0.0 | 0.0 | 0.00 | 0.04 | 0.04 | 90 | 1004.4 |
| 20260507112557 | 51 | 315 | 0.0 | 0.0 | 0.00 | 0.04 | 0.04 | 91 | 1004.5 |
| 20260507112053 | 51 | 309 | 0.0 | 0.0 | 0.00 | 0.04 | 0.04 | 93 | 1004.6 |
| 20260507111550 | 50 | 310 | 0.0 | 0.0 | 0.00 | 0.04 | 0.04 | 94 | 1004.9 |
| 20260507111047 | 50 | 314 | 0.0 | 0.0 | 0.00 | 0.04 | 0.04 | 94 | 1004.6 |
| 20260507110543 | 49 | 311 | 0.0 | 0.0 | 0.00 | 0.04 | 0.04 | 96 | 1004.8 |
| 20260507110040 | 48 | 311 | 0.0 | 0.0 | 0.00 | 0.04 | 0.04 | 96 | 1004.7 |
| 20260507105537 | 48 | 311 | 0.0 | 0.0 | 0.00 | 0.04 | 0.04 | 96 | 1004.9 |
| 20260507105033 | 48 | 312 | 0.0 | 0.0 | 0.00 | 0.04 | 0.04 | 96 | 1004.5 |
| 20260507104530 | 48 | 314 | 0.0 | 0.0 | 0.00 | 0.04 | 0.04 | 96 | 1004.5 |
| 20260507104027 | 48 | 310 | 0.0 | 0.0 | 0.00 | 0.04 | 0.04 | 97 | 1004.9 |
| 20260507103523 | 48 | 310 | 0.0 | 0.0 | 0.00 | 0.04 | 0.04 | 97 | 1005.3 |
| 20260507103019 | 48 | 309 | 0.0 | 0.0 | 0.00 | 0.04 | 0.04 | 98 | 1005.0 |
| 20260507102516 | 48 | 315 | 0.0 | 0.0 | 0.00 | 0.04 | 0.04 | 98 | 1004.8 |
| 20260507102012 | 48 | 316 | 0.0 | 0.0 | 0.00 | 0.04 | 0.04 | 98 | 1004.5 |
| 20260507101507 | 48 | 312 | 0.0 | 0.0 | 0.00 | 0.04 | 0.04 | 98 | 1004.9 |
| 20260507101004 | 48 | 315 | 0.0 | 0.0 | 0.00 | 0.04 | 0.04 | 97 | 1004.5 |
| 20260507100501 | 48 | 314 | 0.0 | 0.0 | 0.00 | 0.04 | 0.04 | 97 | 1004.6 |
| 20260507095959 | 48 | 315 | 0.0 | 0.0 | 0.00 | 0.04 | 0.04 | 98 | 1004.6 |
| 20260507095457 | 48 | 315 | 0.0 | 0.0 | 0.00 | 0.04 | 0.04 | 98 | 1004.6 |
| 20260507094954 | 48 | 313 | 0.0 | 0.0 | 0.00 | 0.04 | 0.04 | 98 | 1005.0 |
| 20260507094450 | 48 | 313 | 0.0 | 0.0 | 0.00 | 0.04 | 0.04 | 99 | 1004.7 |
| 20260507093947 | 47 | 322 | 0.0 | 0.0 | 0.00 | 0.04 | 0.04 | 99 | 1004.1 |
| 20260507093445 | 47 | 314 | 0.0 | 0.0 | 0.00 | 0.04 | 0.04 | 99 | 1004.0 |
| 20260507092943 | 47 | 313 | 0.0 | 0.0 | 0.00 | 0.04 | 0.04 | 99 | 1004.6 |
| 20260507092439 | 47 | 315 | 0.0 | 0.0 | 0.00 | 0.04 | 0.04 | 99 | 1004.5 |
| 20260507091936 | 47 | 336 | 0.0 | 0.0 | 0.00 | 0.04 | 0.04 | 99 | 1004.0 |
| 20260507091432 | 47 | 312 | 0.0 | 0.0 | 0.00 | 0.04 | 0.04 | 99 | 1004.0 |
| 20260507090928 | 47 | 314 | 0.0 | 1.0 | 0.00 | 0.04 | 0.04 | 99 | 1003.8 |
| 20260507090425 | 48 | 315 | 0.0 | 0.0 | 0.00 | 0.04 | 0.04 | 99 | 1004.2 |
| 20260507085921 | 48 | 314 | 0.0 | 0.0 | 0.00 | 0.04 | 0.04 | 99 | 1004.1 |
| 20260507085418 | 48 | 313 | 0.0 | 0.0 | 0.00 | 0.04 | 0.04 | 99 | 1003.9 |
| 20260507084915 | 48 | 316 | 0.0 | 0.0 | 0.00 | 0.04 | 0.04 | 99 | 1004.1 |
| 20260507084412 | 48 | 314 | 0.0 | 0.0 | 0.00 | 0.04 | 0.04 | 99 | 1003.9 |
| 20260507083909 | 48 | 314 | 0.0 | 0.0 | 0.00 | 0.04 | 0.04 | 99 | 1004.3 |
| 20260507083405 | 48 | 312 | 0.0 | 0.0 | 0.00 | 0.04 | 0.04 | 99 | 1004.4 |
| 20260507082902 | 48 | 324 | 0.0 | 0.0 | 0.00 | 0.04 | 0.04 | 99 | 1004.7 |
| 20260507082357 | 48 | 311 | 0.0 | 0.0 | 0.00 | 0.04 | 0.04 | 99 | 1004.3 |
| 20260507081855 | 48 | 313 | 0.0 | 0.0 | 0.00 | 0.04 | 0.04 | 99 | 1004.0 |
| 20260507081351 | 48 | 312 | 0.0 | 0.0 | 0.00 | 0.04 | 0.04 | 99 | 1003.7 |
| 20260507080848 | 48 | 314 | 0.0 | 0.0 | 0.00 | 0.04 | 0.04 | 99 | 1003.7 |
| 20260507080344 | 48 | 313 | 0.0 | 0.0 | 0.00 | 0.04 | 0.04 | 99 | 1003.4 |
| 20260507075839 | 48 | 315 | 0.0 | 0.0 | 0.00 | 0.04 | 0.04 | 99 | 1003.7 |
| 20260507075336 | 49 | 312 | 0.0 | 0.0 | 0.00 | 0.04 | 0.04 | 99 | 1003.5 |
| 20260507074832 | 49 | 314 | 0.0 | 0.0 | 0.00 | 0.04 | 0.04 | 99 | 1003.8 |
| 20260507074330 | 49 | 315 | 0.0 | 0.0 | 0.00 | 0.04 | 0.04 | 99 | 1004.1 |
| 20260507073827 | 49 | 310 | 0.0 | 0.0 | 0.00 | 0.04 | 0.04 | 99 | 1003.9 |
| 20260507073324 | 49 | 313 | 0.0 | 0.0 | 0.00 | 0.04 | 0.04 | 99 | 1003.8 |
| 20260507072821 | 49 | 314 | 0.0 | 0.0 | 0.00 | 0.04 | 0.04 | 99 | 1003.8 |
| 20260507072318 | 49 | 312 | 0.0 | 0.0 | 0.00 | 0.04 | 0.04 | 99 | 1003.6 |
| 20260507071815 | 49 | 312 | 0.0 | 0.0 | 0.00 | 0.04 | 0.04 | 99 | 1003.4 |
| 20260507071312 | 50 | 312 | 0.0 | 0.0 | 0.00 | 0.04 | 0.04 | 99 | 1003.3 |
| 20260507070809 | 50 | 312 | 0.0 | 0.0 | 0.00 | 0.04 | 0.04 | 99 | 1003.2 |
| 20260507070306 | 50 | 309 | 0.0 | 0.0 | 0.00 | 0.04 | 0.04 | 99 | 1003.6 |
| 20260507065802 | 50 | 313 | 0.0 | 0.0 | 0.00 | 0.04 | 0.04 | 99 | 1003.4 |
| 20260507065259 | 50 | 313 | 0.0 | 0.0 | 0.00 | 0.04 | 0.04 | 99 | 1003.1 |
| 20260507064756 | 50 | 313 | 0.0 | 0.0 | 0.00 | 0.04 | 0.04 | 99 | 1003.3 |
| 20260507064255 | 50 | 313 | 0.0 | 0.0 | 0.00 | 0.04 | 0.04 | 99 | 1003.2 |
| 20260507063753 | 50 | 313 | 0.0 | 0.0 | 0.00 | 0.04 | 0.04 | 99 | 1003.3 |
| 20260507063249 | 50 | 311 | 0.0 | 0.0 | 0.00 | 0.04 | 0.04 | 99 | 1003.2 |
| 20260507062746 | 50 | 313 | 0.0 | 0.0 | 0.00 | 0.04 | 0.04 | 99 | 1003.1 |
| 20260507062243 | 50 | 313 | 0.0 | 0.0 | 0.00 | 0.04 | 0.04 | 99 | 1003.1 |
| 20260507061741 | 50 | 313 | 0.0 | 0.0 | 0.00 | 0.04 | 0.04 | 99 | 1003.1 |
| 20260507061239 | 50 | 313 | 0.0 | 0.0 | 0.00 | 0.04 | 0.04 | 99 | 1003.1 |
| 20260507060737 | 51 | 312 | 0.0 | 1.0 | 0.00 | 0.04 | 0.04 | 99 | 1003.0 |
| 20260507060233 | 51 | 309 | 0.0 | 0.0 | 0.00 | 0.04 | 0.04 | 99 | 1003.0 |
| 20260507055729 | 51 | 314 | 0.0 | 0.0 | 0.00 | 0.04 | 0.04 | 99 | 1003.1 |
| 20260507055225 | 51 | 314 | 0.0 | 0.0 | 0.00 | 0.04 | 0.04 | 99 | 1003.2 |
| 20260507054721 | 51 | 320 | 0.0 | 0.0 | 0.00 | 0.04 | 0.04 | 99 | 1002.7 |
| 20260507054218 | 51 | 315 | 0.0 | 0.0 | 0.07 | 0.04 | 0.04 | 99 | 1002.8 |
| 20260507053716 | 51 | 307 | 0.0 | 0.0 | 0.07 | 0.04 | 0.04 | 99 | 1002.7 |
| 20260507053213 | 52 | 300 | 0.0 | 0.0 | 0.00 | 0.03 | 0.03 | 99 | 1002.7 |
| 20260507052712 | 52 | 315 | 0.0 | 1.0 | 0.00 | 0.03 | 0.03 | 99 | 1002.8 |
| 20260507052208 | 53 | 312 | 0.0 | 0.0 | 0.00 | 0.03 | 0.03 | 99 | 1002.8 |
| 20260507051706 | 53 | 311 | 0.0 | 0.0 | 0.00 | 0.03 | 0.03 | 99 | 1002.8 |
| 20260507051202 | 53 | 313 | 0.0 | 0.0 | 0.05 | 0.03 | 0.03 | 99 | 1002.7 |
| 20260507050659 | 53 | 308 | 0.0 | 0.0 | 0.05 | 0.03 | 0.03 | 99 | 1002.6 |
| 20260507050156 | 53 | 310 | 0.0 | 0.0 | 0.00 | 0.02 | 0.02 | 99 | 1002.7 |
| 20260507045653 | 54 | 307 | 1.0 | 1.0 | 0.00 | 0.02 | 0.02 | 99 | 1002.3 |
| 20260507045149 | 54 | 309 | 0.0 | 0.0 | 0.00 | 0.02 | 0.02 | 99 | 1002.2 |
| 20260507044646 | 53 | 309 | 0.0 | 0.0 | 0.00 | 0.02 | 0.02 | 99 | 1002.3 |
| 20260507044143 | 53 | 309 | 0.0 | 1.0 | 0.00 | 0.02 | 0.02 | 99 | 1002.1 |
| 20260507043639 | 53 | 312 | 0.0 | 0.0 | 0.00 | 0.02 | 0.02 | 99 | 1002.2 |
| 20260507043136 | 53 | 308 | 0.0 | 0.0 | 0.00 | 0.02 | 0.02 | 99 | 1002.2 |
| 20260507042633 | 54 | 308 | 0.0 | 0.0 | 0.07 | 0.02 | 0.02 | 99 | 1001.7 |
| 20260507042128 | 53 | 308 | 0.0 | 0.0 | 0.14 | 0.02 | 0.02 | 99 | 1001.8 |
| 20260507041625 | 53 | 312 | 0.0 | 0.0 | 0.07 | 0.01 | 0.01 | 99 | 1001.6 |
| 20260507041121 | 53 | 312 | 0.0 | 0.0 | 0.00 | 0.00 | 0.00 | 99 | 1002.2 |
| 20260507040619 | 53 | 313 | 0.0 | 0.0 | 0.00 | 0.00 | 0.00 | 99 | 1002.4 |
| 20260507040115 | 53 | 312 | 0.0 | 0.0 | 0.12 | 0.00 | 0.00 | 99 | 1002.3 |
| 20260507035611 | 53 | 310 | 0.0 | 0.0 | 0.12 | 0.21 | 0.21 | 99 | 1002.2 |
| 20260507035107 | 53 | 335 | 1.0 | 2.0 | 0.00 | 0.19 | 0.19 | 99 | 1002.2 |
| 20260507034605 | 53 | 348 | 2.0 | 2.0 | 0.00 | 0.19 | 0.19 | 99 | 1002.2 |
| 20260507034102 | 53 | 301 | 0.0 | 1.0 | 0.00 | 0.19 | 0.19 | 99 | 1001.8 |
| 20260507033600 | 53 | 334 | 0.0 | 1.0 | 0.05 | 0.19 | 0.19 | 99 | 1002.0 |
| 20260507033056 | 53 | 318 | 1.0 | 2.0 | 0.05 | 0.19 | 0.19 | 99 | 1002.1 |
| 20260507032554 | 53 | 329 | 1.0 | 1.0 | 0.00 | 0.18 | 0.18 | 99 | 1001.9 |
| 20260507032050 | 52 | 313 | 0.0 | 0.0 | 0.00 | 0.18 | 0.18 | 99 | 1001.8 |
| 20260507031547 | 52 | 328 | 0.0 | 1.0 | 0.00 | 0.18 | 0.18 | 99 | 1002.0 |
| 20260507031044 | 52 | 313 | 0.0 | 0.0 | 0.00 | 0.18 | 0.18 | 99 | 1001.9 |
| 20260507030540 | 52 | 314 | 1.0 | 1.0 | 0.00 | 0.18 | 0.18 | 99 | 1001.6 |
| 20260507030038 | 52 | 313 | 1.0 | 1.0 | 0.00 | 0.18 | 0.18 | 99 | 1001.9 |
| 20260507025535 | 52 | 317 | 0.0 | 1.0 | 0.00 | 0.18 | 0.18 | 99 | 1001.7 |
| 20260507025032 | 52 | 338 | 2.0 | 2.0 | 0.00 | 0.18 | 0.18 | 99 | 1001.7 |
| 20260507024530 | 52 | 327 | 2.0 | 3.0 | 0.00 | 0.18 | 0.18 | 99 | 1002.1 |
| 20260507024027 | 52 | 315 | 0.0 | 0.0 | 0.00 | 0.18 | 0.18 | 99 | 1002.0 |
| 20260507023522 | 52 | 331 | 1.0 | 1.0 | 0.00 | 0.18 | 0.18 | 99 | 1002.1 |
| 20260507023021 | 52 | 333 | 2.0 | 2.0 | 0.00 | 0.18 | 0.18 | 99 | 1001.9 |
| 20260507022517 | 52 | 315 | 3.0 | 3.0 | 0.00 | 0.18 | 0.18 | 99 | 1002.2 |
| 20260507022012 | 52 | 298 | 2.0 | 2.0 | 0.00 | 0.18 | 0.18 | 99 | 1002.2 |
| 20260507021508 | 51 | 3 | 3.0 | 5.0 | 0.00 | 0.18 | 0.18 | 99 | 1002.3 |
| 20260507021005 | 51 | 294 | 4.0 | 7.0 | 0.00 | 0.18 | 0.18 | 99 | 1002.5 |
| 20260507020503 | 51 | 325 | 3.0 | 5.0 | 0.00 | 0.18 | 0.18 | 99 | 1002.3 |